JST839 YBPN-YSSY

Flight info

Callsign JST839
Flight time 2h 5m
Altitude 35000
Route PN W387 MK H652 BOREE
Aircraft A320/M-SDE3FGHIRWY/LB1

Departure

Time 2026-04-14 06:00
Airport Proserpine Whitsunday Coast Airport (YBPN)

Arrival

Time 2026-04-14 08:05
Airport Sydney Kingsford Smith International Airport (YSSY)
Time Latitude Longitude Altitude Speed Heading
2026-04-14 05:39 -20.49019 148.55226 58 ft 0 kts 80°
2026-04-14 05:53 -20.49019 148.55225 57 ft 0 kts 80°
2026-04-14 05:55 -20.49019 148.55226 57 ft 0 kts 80°
2026-04-14 05:56 -20.49027 148.55227 48 ft 2 kts 177°
2026-04-14 05:56 -20.49038 148.55209 56 ft 4 kts 232°
2026-04-14 05:56 -20.49068 148.55174 56 ft 9 kts 215°
2026-04-14 05:56 -20.49133 148.55142 55 ft 11 kts 204°
2026-04-14 05:57 -20.49209 148.55105 56 ft 13 kts 204°
2026-04-14 05:57 -20.49289 148.55064 59 ft 12 kts 217°
2026-04-14 05:57 -20.49276 148.54979 60 ft 13 kts 295°
2026-04-14 05:57 -20.49234 148.54882 57 ft 15 kts 293°
2026-04-14 05:58 -20.49184 148.54763 56 ft 21 kts 295°
2026-04-14 05:58 -20.49112 148.54595 59 ft 26 kts 295°
2026-04-14 05:58 -20.49088 148.54477 60 ft 12 kts 270°
2026-04-14 05:58 -20.49049 148.54460 57 ft 8 kts 65°
2026-04-14 05:59 -20.49079 148.54519 53 ft 13 kts 116°
2026-04-14 05:59 -20.49209 148.54819 57 ft 84 kts 114°
2026-04-14 05:59 -20.49552 148.55616 51 ft 149 kts 115°
2026-04-14 05:59 -20.50013 148.56681 639 ft 160 kts 115°
2026-04-14 06:00 -20.50479 148.57762 1521 ft 160 kts 116°
2026-04-14 06:00 -20.51055 148.58790 2098 ft 168 kts 132°
2026-04-14 06:00 -20.51966 148.59687 2360 ft 190 kts 139°
2026-04-14 06:00 -20.53050 148.60614 2676 ft 209 kts 140°
2026-04-14 06:01 -20.54257 148.61640 2955 ft 234 kts 139°
2026-04-14 06:01 -20.55577 148.62774 3474 ft 250 kts 139°
2026-04-14 06:01 -20.56929 148.63948 4368 ft 252 kts 137°
2026-04-14 06:01 -20.58300 148.65154 5127 ft 259 kts 138°
2026-04-14 06:02 -20.59676 148.66378 5891 ft 263 kts 138°
2026-04-14 06:02 -20.61092 148.67648 6646 ft 268 kts 138°
2026-04-14 06:02 -20.62534 148.68947 7344 ft 275 kts 138°
2026-04-14 06:02 -20.64009 148.70280 8015 ft 280 kts 138°
2026-04-14 06:03 -20.65509 148.71643 8688 ft 286 kts 138°
2026-04-14 06:03 -20.67039 148.73033 9328 ft 292 kts 138°
2026-04-14 06:03 -20.68603 148.74448 9951 ft 297 kts 138°
2026-04-14 06:04 -20.71920 148.77444 10454 ft 333 kts 139°
2026-04-14 06:04 -20.73726 148.79079 10808 ft 345 kts 139°
2026-04-14 06:04 -20.75567 148.80748 11343 ft 349 kts 139°
2026-04-14 06:04 -20.77428 148.82435 11924 ft 352 kts 139°
2026-04-14 06:05 -20.79303 148.84136 12529 ft 355 kts 139°
2026-04-14 06:05 -20.81190 148.85847 13118 ft 357 kts 140°
2026-04-14 06:05 -20.83092 148.87570 13691 ft 360 kts 140°
2026-04-14 06:05 -20.85011 148.89308 14210 ft 363 kts 140°
2026-04-14 06:06 -20.86921 148.91040 14670 ft 367 kts 140°
2026-04-14 06:06 -20.88882 148.92820 15122 ft 371 kts 140°
2026-04-14 06:06 -20.90862 148.94618 15574 ft 375 kts 140°
2026-04-14 06:06 -20.92861 148.96438 16029 ft 380 kts 140°
2026-04-14 06:07 -20.94884 148.98281 16481 ft 384 kts 140°
2026-04-14 06:07 -20.96931 149.00146 16925 ft 388 kts 140°
2026-04-14 06:07 -20.98999 149.02027 17359 ft 393 kts 140°
2026-04-14 06:07 -21.01092 149.03931 17794 ft 397 kts 140°
2026-04-14 06:08 -21.03204 149.05854 18267 ft 400 kts 140°
2026-04-14 06:08 -21.05335 149.07798 18674 ft 403 kts 140°
2026-04-14 06:08 -21.07476 149.09751 19105 ft 406 kts 140°
2026-04-14 06:08 -21.09633 149.11719 19539 ft 409 kts 140°
2026-04-14 06:09 -21.11803 149.13699 19963 ft 411 kts 140°
2026-04-14 06:09 -21.13989 149.15689 20394 ft 414 kts 142°
2026-04-14 06:09 -21.16361 149.17437 20830 ft 414 kts 153°
2026-04-14 06:09 -21.18988 149.18692 21248 ft 415 kts 163°
2026-04-14 06:10 -21.21789 149.19404 21669 ft 414 kts 174°
2026-04-14 06:10 -21.24655 149.19809 22101 ft 416 kts 174°
2026-04-14 06:10 -21.27535 149.20221 22532 ft 419 kts 174°
2026-04-14 06:10 -21.30428 149.20647 22947 ft 421 kts 174°
2026-04-14 06:11 -21.33339 149.21083 23354 ft 423 kts 174°
2026-04-14 06:11 -21.36223 149.21518 23724 ft 425 kts 174°
2026-04-14 06:11 -21.39160 149.21960 24035 ft 428 kts 174°
2026-04-14 06:11 -21.42115 149.22400 24332 ft 430 kts 174°
2026-04-14 06:12 -21.45090 149.22842 24633 ft 433 kts 174°
2026-04-14 06:12 -21.48086 149.23286 24923 ft 435 kts 174°
2026-04-14 06:12 -21.51091 149.23730 25216 ft 437 kts 174°
2026-04-14 06:12 -21.54119 149.24177 25497 ft 440 kts 174°
2026-04-14 06:13 -21.57164 149.24630 25777 ft 442 kts 174°
2026-04-14 06:13 -21.60216 149.25085 26067 ft 444 kts 174°
2026-04-14 06:13 -21.63285 149.25546 26333 ft 447 kts 175°
2026-04-14 06:13 -21.66373 149.26009 26615 ft 449 kts 175°
2026-04-14 06:14 -21.69475 149.26473 26879 ft 451 kts 175°
2026-04-14 06:14 -21.72589 149.26938 27140 ft 453 kts 175°
2026-04-14 06:14 -21.75721 149.27406 27400 ft 455 kts 175°
2026-04-14 06:14 -21.78864 149.27874 27654 ft 457 kts 175°
2026-04-14 06:15 -21.81987 149.28340 27895 ft 460 kts 175°
2026-04-14 06:15 -21.85165 149.28812 28141 ft 462 kts 175°
2026-04-14 06:15 -21.88357 149.29286 28388 ft 464 kts 175°
2026-04-14 06:15 -21.91565 149.29765 28653 ft 467 kts 175°
2026-04-14 06:16 -21.94797 149.30246 28920 ft 469 kts 175°
2026-04-14 06:16 -21.98032 149.30726 29190 ft 471 kts 175°
2026-04-14 06:16 -22.01292 149.31211 29443 ft 473 kts 175°
2026-04-14 06:16 -22.03459 149.31536 29612 ft 475 kts 175°
2026-04-14 06:17 -22.07846 149.32199 30029 ft 476 kts 175°
2026-04-14 06:17 -22.10018 149.32528 30242 ft 476 kts 175°
2026-04-14 06:17 -22.14404 149.33190 30657 ft 475 kts 176°
2026-04-14 06:17 -22.17680 149.33679 30973 ft 475 kts 176°
2026-04-14 06:18 -22.19844 149.34004 31181 ft 475 kts 176°
2026-04-14 06:18 -22.24217 149.34666 31604 ft 474 kts 176°
2026-04-14 06:18 -22.27485 149.35162 31920 ft 474 kts 176°
2026-04-14 06:18 -22.29651 149.35490 32128 ft 474 kts 176°
2026-04-14 06:19 -22.32908 149.35980 32474 ft 473 kts 176°
2026-04-14 06:19 -22.36173 149.36467 32796 ft 473 kts 177°
2026-04-14 06:19 -22.39432 149.36953 33131 ft 472 kts 177°
2026-04-14 06:19 -22.42687 149.37417 33436 ft 470 kts 180°
2026-04-14 06:20 -22.45936 149.37607 33737 ft 468 kts 183°
2026-04-14 06:20 -22.49186 149.37766 34042 ft 467 kts 183°
2026-04-14 06:20 -22.52428 149.37923 34316 ft 467 kts 183°
2026-04-14 06:20 -22.55657 149.38080 34592 ft 466 kts 183°
2026-04-14 06:21 -22.58888 149.38236 34857 ft 465 kts 183°
2026-04-14 06:21 -22.62122 149.38391 35003 ft 465 kts 183°
2026-04-14 06:21 -22.65368 149.38546 35043 ft 468 kts 183°
2026-04-14 06:22 -22.71838 149.38861 35038 ft 469 kts 183°
2026-04-14 06:22 -22.78355 149.39184 35042 ft 469 kts 183°
2026-04-14 06:23 -22.84875 149.39507 35041 ft 469 kts 183°
2026-04-14 06:23 -22.91386 149.39822 35042 ft 469 kts 183°
2026-04-14 06:24 -22.97911 149.40145 35047 ft 469 kts 183°
2026-04-14 06:24 -23.04438 149.40467 35050 ft 470 kts 183°
2026-04-14 06:25 -23.10963 149.40787 35053 ft 470 kts 183°
2026-04-14 06:25 -23.17498 149.41115 35056 ft 470 kts 183°
2026-04-14 06:26 -23.24028 149.41439 35064 ft 470 kts 184°
2026-04-14 06:26 -23.30561 149.41762 35065 ft 470 kts 184°
2026-04-14 06:27 -23.37099 149.42084 35066 ft 470 kts 184°
2026-04-14 06:27 -23.43628 149.42403 35059 ft 470 kts 184°
2026-04-14 06:28 -23.50159 149.42726 35061 ft 470 kts 184°
2026-04-14 06:28 -23.56651 149.43047 35065 ft 470 kts 184°
2026-04-14 06:29 -23.63181 149.43378 35067 ft 470 kts 184°
2026-04-14 06:29 -23.69725 149.43711 35068 ft 470 kts 184°
2026-04-14 06:30 -23.76257 149.44030 35073 ft 470 kts 184°
2026-04-14 06:30 -23.82789 149.44354 35073 ft 470 kts 184°
2026-04-14 06:31 -23.89324 149.44679 35079 ft 470 kts 184°
2026-04-14 06:31 -23.95851 149.45004 35079 ft 470 kts 184°
2026-04-14 06:32 -24.02381 149.45328 35079 ft 470 kts 184°
2026-04-14 06:32 -24.08914 149.45653 35077 ft 470 kts 184°
2026-04-14 06:33 -24.15441 149.45982 35075 ft 470 kts 185°
2026-04-14 06:33 -24.21970 149.46308 35082 ft 470 kts 185°
2026-04-14 06:34 -24.31759 149.46800 35083 ft 469 kts 185°
2026-04-14 06:34 -24.38286 149.47130 35082 ft 469 kts 185°
2026-04-14 06:35 -24.44808 149.47461 35083 ft 469 kts 185°
2026-04-14 06:35 -24.51283 149.47786 35079 ft 469 kts 185°
2026-04-14 06:36 -24.57797 149.48112 35078 ft 469 kts 185°
2026-04-14 06:36 -24.64306 149.48445 35079 ft 469 kts 185°
2026-04-14 06:37 -24.70827 149.48785 35090 ft 469 kts 185°
2026-04-14 06:37 -24.77339 149.49113 35089 ft 468 kts 185°
2026-04-14 06:38 -24.83857 149.49431 35093 ft 468 kts 185°
2026-04-14 06:38 -24.90373 149.49763 35099 ft 468 kts 185°
2026-04-14 06:39 -24.96881 149.50094 35093 ft 468 kts 185°
2026-04-14 06:39 -25.03350 149.50419 35098 ft 468 kts 185°
2026-04-14 06:40 -25.09857 149.50749 35104 ft 468 kts 185°
2026-04-14 06:40 -25.16358 149.51082 35099 ft 468 kts 185°
2026-04-14 06:41 -25.22862 149.51416 35106 ft 467 kts 186°
2026-04-14 06:41 -25.29353 149.51746 35108 ft 467 kts 186°
2026-04-14 06:42 -25.35751 149.52072 35104 ft 466 kts 186°
2026-04-14 06:42 -25.42235 149.52413 35109 ft 466 kts 186°
2026-04-14 06:43 -25.48709 149.52744 35114 ft 465 kts 186°
2026-04-14 06:43 -25.55174 149.53071 35112 ft 465 kts 186°
2026-04-14 06:44 -25.61626 149.53393 35114 ft 464 kts 186°
2026-04-14 06:44 -25.68070 149.53726 35114 ft 463 kts 186°
2026-04-14 06:45 -25.74506 149.54061 35113 ft 463 kts 186°
2026-04-14 06:45 -25.80894 149.54388 35111 ft 462 kts 186°
2026-04-14 06:46 -25.90526 149.54880 35115 ft 462 kts 186°
2026-04-14 06:47 -25.96945 149.55219 35114 ft 462 kts 186°
2026-04-14 06:47 -26.03364 149.55553 35115 ft 461 kts 186°
2026-04-14 06:48 -26.09773 149.55884 35116 ft 461 kts 186°
2026-04-14 06:48 -26.16177 149.56216 35121 ft 461 kts 186°
2026-04-14 06:49 -26.22577 149.56546 35117 ft 460 kts 186°
2026-04-14 06:49 -26.28978 149.56864 35120 ft 460 kts 187°
2026-04-14 06:50 -26.35381 149.57199 35120 ft 461 kts 186°
2026-04-14 06:50 -26.41783 149.57552 35122 ft 460 kts 186°
2026-04-14 06:51 -26.48182 149.57894 35126 ft 460 kts 187°
2026-04-14 06:51 -26.54580 149.58222 35121 ft 460 kts 187°
2026-04-14 06:52 -26.60939 149.58551 35127 ft 460 kts 187°
2026-04-14 06:52 -26.67338 149.58877 35120 ft 460 kts 187°
2026-04-14 06:53 -26.73715 149.59207 35122 ft 460 kts 187°
2026-04-14 06:53 -26.80111 149.59538 35125 ft 460 kts 187°
2026-04-14 06:54 -26.86513 149.59871 35126 ft 461 kts 187°
2026-04-14 06:54 -26.92916 149.60211 35121 ft 461 kts 187°
2026-04-14 06:55 -26.99317 149.60560 35126 ft 461 kts 187°
2026-04-14 06:55 -27.05724 149.60901 35123 ft 461 kts 187°
2026-04-14 06:56 -27.12131 149.61230 35126 ft 461 kts 187°
2026-04-14 06:56 -27.18530 149.61561 35125 ft 461 kts 187°
2026-04-14 06:57 -27.24934 149.61900 35126 ft 460 kts 187°
2026-04-14 06:57 -27.31329 149.62244 35126 ft 460 kts 187°
2026-04-14 06:58 -27.37721 149.62576 35121 ft 460 kts 187°
2026-04-14 06:58 -27.44107 149.62906 35126 ft 459 kts 187°
2026-04-14 06:59 -27.50454 149.63246 35127 ft 459 kts 187°
2026-04-14 06:59 -27.56835 149.63589 35125 ft 459 kts 187°
2026-04-14 07:00 -27.63207 149.63936 35127 ft 458 kts 188°
2026-04-14 07:00 -27.69574 149.64273 35127 ft 458 kts 188°
2026-04-14 07:01 -27.75824 149.64604 35126 ft 457 kts 188°
2026-04-14 07:01 -27.82175 149.64935 35130 ft 457 kts 188°
2026-04-14 07:02 -27.88527 149.65272 35135 ft 456 kts 188°
2026-04-14 07:02 -27.94835 149.65616 35133 ft 456 kts 188°
2026-04-14 07:03 -28.01177 149.65956 35134 ft 456 kts 188°
2026-04-14 07:03 -28.07512 149.66292 35134 ft 455 kts 188°
2026-04-14 07:04 -28.13840 149.66631 35128 ft 455 kts 187°
2026-04-14 07:04 -28.20187 149.67389 35125 ft 470 kts 175°
2026-04-14 07:05 -28.26538 149.69230 35134 ft 471 kts 175°
2026-04-14 07:05 -28.32882 149.71075 35131 ft 471 kts 175°
2026-04-14 07:06 -28.38159 149.72616 35126 ft 470 kts 175°
2026-04-14 07:06 -28.44496 149.74463 35125 ft 470 kts 175°
2026-04-14 07:07 -28.51898 149.76612 35125 ft 469 kts 175°
2026-04-14 07:07 -28.57146 149.78147 35126 ft 469 kts 175°
2026-04-14 07:08 -28.64485 149.80298 35124 ft 468 kts 175°
2026-04-14 07:08 -28.69771 149.81841 35126 ft 468 kts 175°
2026-04-14 07:09 -28.76079 149.83688 35127 ft 468 kts 175°
2026-04-14 07:09 -28.82336 149.85533 35128 ft 468 kts 175°
2026-04-14 07:10 -28.88636 149.87390 35128 ft 467 kts 175°
2026-04-14 07:10 -28.94931 149.89243 35128 ft 467 kts 175°
2026-04-14 07:11 -29.01229 149.91097 35131 ft 467 kts 175°
2026-04-14 07:11 -29.07521 149.92953 35130 ft 467 kts 175°
2026-04-14 07:12 -29.13808 149.94809 35132 ft 467 kts 174°
2026-04-14 07:12 -29.20100 149.96666 35133 ft 467 kts 174°
2026-04-14 07:13 -29.26388 149.98532 35136 ft 467 kts 174°
2026-04-14 07:13 -29.32677 150.00394 35137 ft 466 kts 174°
2026-04-14 07:14 -29.38954 150.02266 35139 ft 466 kts 174°
2026-04-14 07:14 -29.45240 150.04132 35136 ft 466 kts 174°
2026-04-14 07:15 -29.51518 150.05996 35139 ft 466 kts 174°
2026-04-14 07:15 -29.57801 150.07872 35140 ft 466 kts 174°
2026-04-14 07:16 -29.64038 150.09735 35145 ft 466 kts 174°
2026-04-14 07:16 -29.70310 150.11602 35145 ft 466 kts 174°
2026-04-14 07:17 -29.76578 150.13480 35146 ft 465 kts 174°
2026-04-14 07:17 -29.82842 150.15363 35145 ft 465 kts 174°
2026-04-14 07:18 -29.89097 150.17238 35147 ft 464 kts 174°
2026-04-14 07:18 -29.95345 150.19108 35145 ft 464 kts 174°
2026-04-14 07:19 -30.01589 150.20987 35147 ft 464 kts 174°
2026-04-14 07:19 -30.07826 150.22872 35151 ft 463 kts 174°
2026-04-14 07:20 -30.14061 150.24746 35150 ft 463 kts 174°
2026-04-14 07:20 -30.20294 150.26630 35149 ft 463 kts 174°
2026-04-14 07:21 -30.26523 150.28522 35155 ft 463 kts 174°
2026-04-14 07:21 -30.32759 150.30407 35159 ft 463 kts 174°
2026-04-14 07:22 -30.38945 150.32271 35158 ft 462 kts 175°
2026-04-14 07:22 -30.45168 150.34159 35152 ft 462 kts 174°
2026-04-14 07:23 -30.51384 150.36057 35148 ft 462 kts 174°
2026-04-14 07:23 -30.57601 150.37956 35151 ft 461 kts 174°
2026-04-14 07:24 -30.63811 150.39849 35151 ft 461 kts 174°
2026-04-14 07:24 -30.70009 150.41735 35144 ft 460 kts 174°
2026-04-14 07:25 -30.76121 150.43598 35142 ft 460 kts 174°
2026-04-14 07:25 -30.82318 150.45496 35142 ft 460 kts 174°
2026-04-14 07:26 -30.88435 150.47375 35142 ft 459 kts 174°
2026-04-14 07:26 -30.94537 150.49248 35145 ft 459 kts 174°
2026-04-14 07:27 -31.00717 150.51142 35152 ft 460 kts 174°
2026-04-14 07:27 -31.06866 150.53030 35153 ft 459 kts 174°
2026-04-14 07:28 -31.13044 150.54940 35154 ft 460 kts 174°
2026-04-14 07:28 -31.19226 150.56856 35150 ft 459 kts 174°
2026-04-14 07:29 -31.25406 150.58758 35152 ft 459 kts 174°
2026-04-14 07:29 -31.31582 150.60662 35150 ft 459 kts 174°
2026-04-14 07:30 -31.37756 150.62578 35151 ft 459 kts 174°
2026-04-14 07:30 -31.43926 150.64491 35150 ft 459 kts 174°
2026-04-14 07:31 -31.50070 150.66401 35148 ft 459 kts 174°
2026-04-14 07:31 -31.56240 150.68317 35149 ft 458 kts 174°
2026-04-14 07:32 -31.62406 150.70233 35152 ft 458 kts 174°
2026-04-14 07:32 -31.68563 150.72151 35146 ft 458 kts 174°
2026-04-14 07:33 -31.74717 150.74082 35147 ft 457 kts 174°
2026-04-14 07:33 -31.80867 150.76009 35144 ft 457 kts 174°
2026-04-14 07:34 -31.93151 150.79847 35146 ft 456 kts 174°
2026-04-14 07:35 -31.99283 150.81780 35145 ft 456 kts 174°
2026-04-14 07:35 -32.05385 150.83446 35141 ft 447 kts 181°
2026-04-14 07:36 -32.11554 150.84516 34843 ft 448 kts 181°
2026-04-14 07:36 -32.14637 150.85052 34619 ft 448 kts 180°
2026-04-14 07:36 -32.17708 150.85592 34242 ft 445 kts 180°
2026-04-14 07:36 -32.20770 150.86131 33667 ft 444 kts 180°
2026-04-14 07:37 -32.23812 150.86667 33158 ft 441 kts 180°
2026-04-14 07:37 -32.26838 150.87198 32644 ft 438 kts 179°
2026-04-14 07:37 -32.29846 150.87726 32122 ft 436 kts 179°
2026-04-14 07:37 -32.32842 150.88255 31606 ft 434 kts 178°
2026-04-14 07:38 -32.35825 150.88783 31092 ft 432 kts 178°
2026-04-14 07:38 -32.38796 150.89305 30575 ft 431 kts 178°
2026-04-14 07:38 -32.41753 150.89822 30039 ft 429 kts 177°
2026-04-14 07:38 -32.44701 150.90338 29487 ft 426 kts 177°
2026-04-14 07:39 -32.47624 150.90855 28981 ft 423 kts 176°
2026-04-14 07:39 -32.50516 150.91367 28471 ft 419 kts 176°
2026-04-14 07:39 -32.53394 150.91881 27975 ft 416 kts 176°
2026-04-14 07:39 -32.56246 150.92387 27483 ft 413 kts 176°
2026-04-14 07:40 -32.59048 150.92881 27011 ft 411 kts 176°
2026-04-14 07:40 -32.61863 150.93380 26533 ft 408 kts 176°
2026-04-14 07:40 -32.64658 150.93874 26090 ft 405 kts 176°
2026-04-14 07:40 -32.67439 150.94366 25643 ft 403 kts 175°
2026-04-14 07:41 -32.70212 150.94856 25196 ft 402 kts 175°
2026-04-14 07:41 -32.72966 150.95344 24771 ft 400 kts 175°
2026-04-14 07:41 -32.75721 150.95835 24337 ft 399 kts 175°
2026-04-14 07:41 -32.78462 150.96319 23892 ft 398 kts 175°
2026-04-14 07:42 -32.81200 150.96801 23405 ft 398 kts 175°
2026-04-14 07:42 -32.83934 150.97287 22941 ft 396 kts 175°
2026-04-14 07:42 -32.86651 150.97772 22484 ft 394 kts 175°
2026-04-14 07:42 -32.89352 150.98257 22014 ft 392 kts 174°
2026-04-14 07:43 -32.92046 150.98739 21545 ft 390 kts 174°
2026-04-14 07:43 -32.94722 150.99218 21058 ft 389 kts 174°
2026-04-14 07:43 -32.97395 150.99701 20565 ft 388 kts 174°
2026-04-14 07:43 -33.00062 151.00178 20077 ft 386 kts 174°
2026-04-14 07:44 -33.02719 151.00648 19593 ft 385 kts 174°
2026-04-14 07:44 -33.05358 151.01113 19100 ft 382 kts 174°
2026-04-14 07:44 -33.07966 151.01578 18624 ft 375 kts 174°
2026-04-14 07:44 -33.10518 151.02036 18106 ft 367 kts 174°
2026-04-14 07:45 -33.13017 151.02487 17639 ft 358 kts 174°
2026-04-14 07:45 -33.15451 151.02927 17182 ft 351 kts 174°
2026-04-14 07:45 -33.17841 151.03357 16735 ft 343 kts 175°
2026-04-14 07:45 -33.20182 151.03776 16298 ft 337 kts 175°
2026-04-14 07:46 -33.22481 151.04187 15871 ft 332 kts 175°
2026-04-14 07:46 -33.24747 151.04594 15440 ft 326 kts 175°
2026-04-14 07:46 -33.26973 151.05012 15015 ft 322 kts 174°
2026-04-14 07:46 -33.29191 151.05435 14596 ft 322 kts 174°
2026-04-14 07:47 -33.31410 151.05860 14175 ft 324 kts 174°
2026-04-14 07:47 -33.33636 151.06287 13734 ft 324 kts 175°
2026-04-14 07:47 -33.35863 151.06718 13288 ft 324 kts 174°
2026-04-14 07:47 -33.38087 151.07152 12868 ft 324 kts 174°
2026-04-14 07:48 -33.40310 151.07584 12451 ft 323 kts 174°
2026-04-14 07:48 -33.42528 151.08009 12032 ft 323 kts 174°
2026-04-14 07:48 -33.44746 151.08430 11612 ft 323 kts 174°
2026-04-14 07:48 -33.46967 151.08855 11207 ft 322 kts 174°
2026-04-14 07:49 -33.49169 151.09283 10970 ft 321 kts 174°
2026-04-14 07:49 -33.51368 151.09716 10731 ft 320 kts 174°
2026-04-14 07:49 -33.53565 151.10148 10500 ft 319 kts 174°
2026-04-14 07:49 -33.55750 151.10575 10261 ft 318 kts 174°
2026-04-14 07:50 -33.57930 151.10999 10063 ft 316 kts 174°
2026-04-14 07:50 -33.60054 151.11412 9974 ft 306 kts 174°
2026-04-14 07:50 -33.62084 151.11810 9997 ft 295 kts 174°
2026-04-14 07:50 -33.64113 151.12202 9912 ft 294 kts 174°
2026-04-14 07:51 -33.66130 151.12587 9785 ft 294 kts 174°
2026-04-14 07:51 -33.68140 151.12972 9661 ft 292 kts 174°
2026-04-14 07:51 -33.70069 151.13344 9539 ft 292 kts 174°
2026-04-14 07:51 -33.72074 151.13734 9411 ft 291 kts 174°
2026-04-14 07:52 -33.74069 151.14123 9281 ft 290 kts 174°
2026-04-14 07:52 -33.76065 151.14510 9154 ft 290 kts 174°
2026-04-14 07:52 -33.78057 151.14896 9024 ft 290 kts 174°
2026-04-14 07:52 -33.80034 151.15220 8905 ft 287 kts 180°
2026-04-14 07:53 -33.82014 151.15152 8769 ft 283 kts 191°
2026-04-14 07:53 -33.83933 151.14683 8651 ft 281 kts 197°
2026-04-14 07:53 -33.85829 151.14133 8526 ft 280 kts 197°
2026-04-14 07:53 -33.87717 151.13587 8368 ft 280 kts 197°
2026-04-14 07:54 -33.89582 151.13047 8089 ft 275 kts 197°
2026-04-14 07:54 -33.91402 151.12526 7822 ft 267 kts 197°
2026-04-14 07:54 -33.93184 151.12014 7554 ft 261 kts 197°
2026-04-14 07:54 -33.94938 151.11510 7290 ft 259 kts 197°
2026-04-14 07:55 -33.96682 151.11006 7029 ft 257 kts 197°
2026-04-14 07:55 -33.98420 151.10506 6764 ft 256 kts 197°
2026-04-14 07:55 -34.00165 151.10004 6505 ft 259 kts 197°
2026-04-14 07:55 -34.01915 151.09500 6220 ft 258 kts 197°
2026-04-14 07:56 -34.03659 151.08996 5939 ft 257 kts 197°
2026-04-14 07:56 -34.04807 151.08662 5763 ft 256 kts 198°
2026-04-14 07:56 -34.07130 151.08029 5390 ft 257 kts 191°
2026-04-14 07:56 -34.08915 151.08003 5120 ft 256 kts 176°
2026-04-14 07:57 -34.10061 151.08261 4936 ft 249 kts 171°
2026-04-14 07:57 -34.11723 151.08704 4658 ft 242 kts 171°
2026-04-14 07:57 -34.13358 151.09130 4405 ft 240 kts 171°
2026-04-14 07:57 -34.14981 151.09550 4154 ft 236 kts 171°
2026-04-14 07:58 -34.16561 151.09951 3909 ft 229 kts 170°
2026-04-14 07:58 -34.18360 151.11113 3573 ft 224 kts 129°
2026-04-14 07:58 -34.18962 151.12800 3331 ft 219 kts 94°
2026-04-14 07:58 -34.18961 151.14626 3097 ft 216 kts 84°
2026-04-14 07:59 -34.18887 151.15845 3026 ft 216 kts 83°
2026-04-14 07:59 -34.18764 151.17645 3005 ft 215 kts 83°
2026-04-14 07:59 -34.18636 151.19453 3009 ft 217 kts 83°
2026-04-14 07:59 -34.18292 151.21172 3008 ft 213 kts 59°
2026-04-14 08:00 -34.17326 151.22471 3010 ft 208 kts 29°
2026-04-14 08:00 -34.15983 151.23024 3012 ft 204 kts
2026-04-14 08:00 -34.14582 151.22801 3014 ft 204 kts 346°
2026-04-14 08:00 -34.13197 151.22433 3016 ft 204 kts 347°
2026-04-14 08:01 -34.11812 151.22068 2984 ft 205 kts 346°
2026-04-14 08:01 -34.10434 151.21709 2785 ft 199 kts 347°
2026-04-14 08:01 -34.09094 151.21359 2576 ft 194 kts 348°
2026-04-14 08:01 -34.07803 151.21023 2295 ft 186 kts 349°
2026-04-14 08:02 -34.06587 151.20706 2055 ft 172 kts 350°
2026-04-14 08:02 -34.05448 151.20409 1839 ft 163 kts 351°
2026-04-14 08:02 -34.04386 151.20132 1627 ft 150 kts 351°
2026-04-14 08:02 -34.03389 151.19873 1450 ft 142 kts 351°
2026-04-14 08:03 -34.02428 151.19624 1257 ft 140 kts 351°
2026-04-14 08:03 -34.01480 151.19378 1065 ft 140 kts 350°
2026-04-14 08:03 -34.00527 151.19131 882 ft 139 kts 350°
2026-04-14 08:03 -33.99581 151.18882 685 ft 139 kts 351°
2026-04-14 08:04 -33.98631 151.18634 509 ft 142 kts 352°
2026-04-14 08:04 -33.97676 151.18386 327 ft 140 kts 351°
2026-04-14 08:04 -33.96745 151.18147 140 ft 137 kts 351°
2026-04-14 08:04 -33.95820 151.17907 30 ft 123 kts 348°
2026-04-14 08:05 -33.95156 151.17736 28 ft 74 kts 347°
2026-04-14 08:05 -33.94801 151.17649 29 ft 38 kts 352°
2026-04-14 08:05 -33.94579 151.17662 29 ft 23 kts 12°
2026-04-14 08:05 -33.94449 151.17709 30 ft 18 kts 18°
2026-04-14 08:06 -33.94348 151.17738 30 ft 16 kts 357°
2026-04-14 08:06 -33.94231 151.17704 29 ft 19 kts 345°
2026-04-14 08:06 -33.94097 151.17664 28 ft 21 kts 347°
2026-04-14 08:06 -33.93967 151.17629 29 ft 16 kts 347°
2026-04-14 08:07 -33.93855 151.17599 29 ft 14 kts 348°
2026-04-14 08:07 -33.93777 151.17579 29 ft 12 kts 348°
2026-04-14 08:07 -33.93701 151.17560 29 ft 10 kts 348°
2026-04-14 08:07 -33.93646 151.17602 30 ft 11 kts 64°
2026-04-14 08:08 -33.93647 151.17702 30 ft 13 kts 101°
2026-04-14 08:08 -33.93649 151.17806 30 ft 12 kts 46°
2026-04-14 08:08 -33.93561 151.17830 30 ft 14 kts
2026-04-14 08:08 -33.93505 151.17841 30 ft 1 kts
2026-04-14 08:09 -33.93491 151.17818 30 ft 7 kts 278°
2026-04-14 08:09 -33.93487 151.17783 30 ft 2 kts 278°
2026-04-14 08:09 -33.93485 151.17772 30 ft 2 kts 279°
2026-04-14 08:09 -33.93485 151.17771 30 ft 0 kts 279°